This demonstration page uses our WeatherBlox Daily Observations layout. Learn more.

Left ArrowRight Arrow

34.16533, -84.80231

Hourly Observations for March 26, 2017

Temp ( °F °C ) Dew Point ( °F °C ) Humidity (%) Winds ( mph kmh ) Pressure ( in mb ) Visibility ( mi km ) Precip ( " mm )
12:53 am 00:53 Cloudy 60 15.6 58 14.4 93 93 Calm 30.09 1019 10 16 0.05 1.27
1:27 am 01:27 Cloudy with Light Rain 60 15.6 59 15 96 96 E 3 6 30.06 1018 10 16 0.00 0.03
1:53 am 01:53 Cloudy with Heavy Rain 60 15.6 58 14.4 93 93 ESE 5 7 30.06 1018 3 5 0.09 2.29
2:05 am 02:05 Cloudy with Light Rain 60 15.6 58 14.4 93 93 SE 6 9 30.06 1018 10 16 0.01 0.25
2:53 am 02:53 Cloudy with Light Rain 60 15.6 57 13.9 90 90 SSE 8 13 30.05 1018 10 16 0.03 0.76
3:53 am 03:53 Cloudy 59 15 58 14.4 96 96 ESE 5 7 30.05 1018 10 16 0.08 2.03
4:53 am 04:53 Mostly Cloudy 59 15 58 14.4 96 96 Calm 30.04 1017 10 16 0.00 0.00
5:53 am 05:53 Partly Cloudy 59 15 56 13.3 90 90 Calm 30.04 1017 10 16 0.00 0.00
6:53 am 06:53 Mostly Cloudy 58 14.4 56 13.3 93 93 Calm 30.05 1018 10 16 0.00 0.00
7:53 am 07:53 Sunny 58 14.4 56 13.3 93 93 Calm 30.06 1018 10 16 0.00 0.00
8:53 am 08:53 Mostly Sunny 60 15.6 58 14.4 93 93 VRB 3 6 30.08 1019 10 16 0.00 0.00
9:08 am 09:08 Mostly Sunny 61 16.1 58 14.4 90 90 SE 7 11 30.09 1019 10 16 0.00 0.00
9:53 am 09:53 Mostly Sunny 63 17.2 58 14.4 84 84 SSE 8 13 30.08 1019 10 16 0.00 0.00
10:53 am 10:53 Mostly Cloudy 67 19.4 58 14.4 73 73 S 13 20 30.09 1019 10 16 0.00 0.00
11:27 am 11:27 Mostly Cloudy 67 19.4 58 14.4 73 73 S 12 19 30.09 1019 10 16 0.00 0.00
11:53 am 11:53 Mostly Cloudy 69 20.6 57 13.9 66 66 S 10 17 30.09 1019 10 16 0.00 0.00
12:53 pm 12:53 Mostly Cloudy 72 22.2 57 13.9 59 59 SSW 10 17 30.08 1019 10 16 0.00 0.00
1:53 pm 13:53 Mostly Cloudy 74 23.3 56 13.3 54 54 S 13 20 30.06 1018 10 16 0.00 0.00
2:53 pm 14:53 Mostly Cloudy 74 23.3 56 13.3 54 54 VRB 6 9 30.04 1017 10 16 0.00 0.00
3:53 pm 15:53 Partly Cloudy 77 25 55 12.8 47 47 S 15 24 30.01 1016 10 16 0.00 0.00
4:53 pm 16:53 Partly Cloudy 77 25 54 12.2 45 45 SW 6 9 30.00 1016 10 16 0.00 0.00
5:53 pm 17:53 Mostly Cloudy 76 24.4 52 11.1 43 43 SW 8 13 29.98 1015 10 16 0.00 0.00
6:53 pm 18:53 Sunny 76 24.4 52 11.1 43 43 VRB 3 6 30.00 1016 10 16 0.00 0.00
7:53 pm 19:53 Partly Cloudy 73 22.8 52 11.1 48 48 Calm 30.01 1016 10 16 0.00 0.00
8:53 pm 20:53 Mostly Clear 64 17.8 55 12.8 73 73 Calm 30.02 1017 10 16 0.00 0.00
9:53 pm 21:53 Mostly Cloudy 62 16.7 55 12.8 78 78 Calm 30.04 1017 10 16 0.00 0.00
10:53 pm 22:53 Mostly Clear 60 15.6 55 12.8 84 84 Calm 30.04 1017 10 16 0.00 0.00
11:53 pm 23:53 Partly Cloudy 58 14.4 55 12.8 90 90 Calm 30.04 1017 10 16 0.00 0.00

Powered by AerisWeather